This is the latest recevied weather packets stored in our database for station/object DL9GRB-13. If no packets are shown the sender has not sent any weather packets the latest 10 day(s).
| Time | Temp. | Humidity | Pressure | Rain* | Wind** | Luminosity | Snow |
|---|---|---|---|---|---|---|---|
| 1778302149 | 3.33° C | 94% | 1021.3 hPa | 0 mm | - | 64 W/m² | - |
| 1778301969 | 3.33° C | 95% | 1021.1 hPa | 0 mm | - | 61 W/m² | - |
| 1778301789 | 2.78° C | 96% | 1021.5 hPa | 0 mm | - | 58 W/m² | - |
| 1778301609 | 2.78° C | 97% | 1021.3 hPa | 0 mm | - | 56 W/m² | - |
| 1778301429 | 2.22° C | 97% | 1021.2 hPa | 0 mm | - | 53 W/m² | - |
| 1778301249 | 1.67° C | 97% | 1021.3 hPa | 0 mm | - | 51 W/m² | - |
| 1778301069 | 1.11° C | 97% | 1021.2 hPa | 0 mm | - | 48 W/m² | - |
| 1778300889 | 0.56° C | 96% | 1021.2 hPa | 0 mm | - | 45 W/m² | - |
| 1778300709 | 0.56° C | 96% | 1021.3 hPa | 0 mm | - | 40 W/m² | - |
| 1778300529 | 0.56° C | 96% | 1021.3 hPa | 0 mm | - | 24 W/m² | - |
| 1778300349 | 0.56° C | 96% | 1021.4 hPa | 0 mm | - | 23 W/m² | - |
| 1778300169 | 0.56° C | 96% | 1021.1 hPa | 0 mm | - | 22 W/m² | - |
| 1778299989 | 0.56° C | 96% | 1021.3 hPa | 0 mm | - | 21 W/m² | - |
| 1778299809 | 0° C | 96% | 1021.4 hPa | 0 mm | - | 20 W/m² | - |
| 1778299629 | 0° C | 95% | 1021.2 hPa | 0 mm | - | 19 W/m² | - |
| 1778299449 | 0° C | 95% | 1021.2 hPa | 0 mm | - | 18 W/m² | - |
| 1778299269 | 0° C | 95% | 1021.3 hPa | 0 mm | - | 17 W/m² | - |
| 1778299089 | 0° C | 95% | 1021.3 hPa | 0 mm | - | 16 W/m² | - |
| 1778298909 | 0° C | 96% | 1021.4 hPa | 0 mm | - | 15 W/m² | - |
| 1778298729 | 0° C | 95% | 1021.3 hPa | 0 mm | - | 13 W/m² | - |
| 1778298549 | 0° C | 95% | 1021.1 hPa | 0 mm | - | 12 W/m² | - |
| 1778298369 | 0° C | 95% | 1021.2 hPa | 0 mm | - | 11 W/m² | - |
| 1778298189 | 0° C | 95% | 1021.3 hPa | 0 mm | - | 10 W/m² | - |
| 1778298009 | 0° C | 95% | 1021.4 hPa | 0 mm | - | 9 W/m² | - |
| 1778297829 | 0° C | 95% | 1021.3 hPa | 0 mm | - | 8 W/m² | - |
* Rain latest hour (hover to see other rain measurements)
** Current wind speed in m/s (hover to see current wind gust speed)